Temp
9 9 9 9 8 8 11 11 9 9 8 8 9 8 8 9 8 8 8 8 7 8 9 9 9 9 8 8 7 7 7 7 7 7 7 7 7 7 7 7 7 6 6 6 6 7 7 7 7
9 9 9 8 8 11 12 9 8 8 6 8 8 8 7 7 8 8 8 8 7 7 7 8 8 8 7 7 7 7 7 7 7 7 7 7 7 7 7 7 6 6 6 6 6 6 6 6 6
9 8 8 7 9 11 10 8 7 8 8 8 6 7 7 7 8 8 8 8 8 7 6 7 7 7 7 7 7 7 7 7 7 7 7 6 6 6 6 6 6 6 6 5 5 5 6 6 6
8 8 8 8 10 9 8 8 8 6 7 7 7 5 7 7 7 7 8 7 7 7 7 7 7 7 7 7 7 6 6 6 6 7 7 6 6 6 6 6 6 6 6 5 6 6 6 5 6
8 8 7 8 9 8 7 7 7 6 6 5 6 5 6 7 7 7 7 6 6 6 7 7 6 6 6 6 6 6 6 6 6 6 6 6 6 6 6 6 6 6 6 6 6 6 6 6 5
7 7 8 9 9 8 6 6 7 6 5 5 5 5 6 6 7 7 7 5 6 6 6 6 6 6 6 6 6 6 6 6 6 6 5 6 6 6 6 6 6 6 6 6 5 5 6 6 6
7 6 8 7 8 7 6 7 5 5 5 5 5 5 6 6 6 6 6 5 5 5 5 5 5 5 5 5 5 5 6 6 6 5 5 5 5 5 5 5 5 5 6 5 6 5 5 5 6
7 7 7 7 7 7 6 6 6 5 5 5 5 4 4 6 6 6 5 5 4 4 4 4 4 5 5 5 5 5 5 5 5 5 5 5 5 5 5 5 5 5 5 5 5 5 5 5 5
6 6 7 7 6 6 6 5 6 5 5 5 5 5 5 5 5 5 4 4 4 4 4 4 4 4 6 5 5 5 4 4 4 3 3 4 4 4 5 5 5 5 5 5 5 5 5 5 5
6 5 6 6 6 6 6 5 4 5 5 5 5 5 4 5 5 4 4 3 3 3 4 4 4 4 4 5 4 4 4 4 4 5 4 4 5 4 4 5 5 5 5 5 5 5 5 5 5
6 5 6 6 6 6 5 5 5 5 4 4 4 5 4 4 4 4 4 4 3 3 4 4 4 4 5 5 5 5 5 5 5 5 4 5 5 5 5 5 5 5 5 5 4 5 5 5 5
5 6 6 6 6 6 5 5 5 5 4 4 4 4 4 4 4 4 4 4 4 4 4 5 5 5 5 5 5 5 5 5 5 5 5 5 5 5 5 5 5 5 5 5 5 5 5 5 4
5 5 5 6 5 6 5 5 5 5 4 4 4 4 4 4 4 4 4 4 4 4 4 5 5 5 5 5 5 5 4 4 4 4 5 5 5 5 5 5 5 5 5 5 5 5 5 5 5
5 5 5 5 5 5 5 5 5 5 4 4 4 4 4 4 4 3 3 4 4 4 4 4 4 4 4 4 4 4 4 4 4 4 4 4 5 5 5 5 5 5 5 5 5 5 5 5 5
5 5 5 5 5 5 5 5 5 5 5 4 4 3 4 3 3 3 4 4 4 4 4 4 4 4 4 4 4 4 4 4 4 4 4 4 5 5 5 5 5 5 5 5 5 5 5 5 5
4 4 4 4 5 5 5 5 5 5 5 5 4 4 3 4 3 3 3 4 4 4 4 3 3 3 3 3 4 4 4 4 4 4 4 5 5 5 5 5 5 5 5 5 5 5 5 5 5
3 4 5 4 5 4 4 5 5 5 5 5 4 4 3 3 3 3 3 4 4 4 3 3 3 3 3 3 3 3 3 3 4 4 4 4 4 4 4 4 4 4 4 5 5 5 5 5 5
4 4 5 4 3 4 4 4 3 5 5 5 4 4 3 4 3 3 3 3 3 3 3 3 3 2 2 2 2 3 3 3 3 3 4 4 4 4 4 4 4 4 4 4 4 4 4 4 5
4 3 3 4 3 3 4 3 3 3 5 5 5 4 4 3 3 4 3 3 3 3 2 2 2 2 2 2 2 2 3 3 3 3 3 3 4 4 4 4 4 4 4 4 4 4 4 4 4
3 2 2 3 2 3 3 3 3 3 5 5 5 4 4 4 4 3 3 3 2 2 2 2 2 1 2 2 2 2 2 2 2 3 3 3 4 4 4 4 4 3 3 3 3 3 4 3 3
2 1 2 2 1 2 2 3 5 5 5 5 5 4 4 4 4 3 3 3 3 2 2 2 1 1 1 1 1 1 2 2 2 3 3 4 4 4 4 4 3 3 3 3 3 3 3 3 3
1 1 1 1 -0 1 1 3 5 5 5 5 5 4 4 4 4 3 3 3 2 2 2 1 1 1 1 1 1 1 1 2 2 3 3 3 4 4 4 3 3 3 2 2 2 2 2 2 2
0 1 1 0 -0 -1 1 1 4 4 4 5 5 4 4 4 3 3 3 2 2 1 1 1 1 0 0 0 0 1 1 2 2 2 3 3 3 3 4 3 2 2 2 2 2 2 2 1 1
0 -0 -0 -1 -1 -1 1 2 3 5 4 4 3 3 3 3 3 3 2 1 1 1 0 0 -0 -0 -0 -0 0 0 1 1 2 2 2 3 3 3 3 2 2 2 2 2 2 2 2 1 1
-0 -1 0 -0 -1 1 1 1 3 3 2 3 3 3 2 2 1 2 2 1 0 0 -0 -1 -1 -1 -1 -1 -0 -0 0 1 1 2 2 2 2 2 2 1 1 1 1 1 2 2 1 1 1
-1 -1 0 0 2 3 -0 0 3 2 2 3 3 3 3 2 2 1 2 0 -0 -1 -1 -1 -1 -1 -1 -1 -1 -0 0 1 1 2 2 2 2 1 1 1 1 1 1 1 1 1 1 1 0
-2 -2 -1 -1 0 -0 2 2 2 1 1 2 2 2 2 2 1 1 0 -1 -1 -1 -2 -2 -2 -2 -2 -2 -1 -1 -0 0 1 1 2 2 1 1 0 0 0 0 0 0 0 0 1 0 0
-2 -3 -2 -2 -1 0 3 2 2 -1 -0 0 1 1 1 1 1 1 -0 -2 -2 -2 -2 -2 -2 -2 -2 -2 -2 -1 -0 0 1 1 1 1 1 0 -0 -0 -0 -0 -1 -0 -0 -0 0 0 -0
-3 -4 -3 -2 -2 -1 1 2 -0 -1 -1 -0 0 0 0 -0 -1 -1 -2 -2 -3 -3 -3 -3 -3 -3 -2 -2 -2 -1 -1 -0 0 0 0 0 -0 -0 -1 -1 -0 -1 -1 -1 -1 -0 -0 -0 -0
-2 -3 -3 -2 -1 -3 -3 -1 -1 -1 -1 -1 -1 -1 -1 -1 -2 -2 -3 -3 -3 -3 -3 -3 -3 -3 -2 -2 -2 -2 -1 -1 -1 -0 -0 -0 -1 -1 -1 -1 -1 -1 -1 -1 -1 -1 -1 -0 -1
Height
3128 3128 3128 3128 3133 3129 3128 3128 3127 3128 3128 3125 3125 3128 3130 3128 3130 3133 3127 3127 3129 3130 3131 3133 3135 3136 3138 3139 3141 3141 3142 3143 3145 3145 3146 3147 3147 3149 3149 3149 3150 3150 3151 3151 3151 3151 3151 3151 3150
3127 3127 3127 3127 3130 3128 3126 3125 3128 3127 3125 3124 3124 3125 3127 3126 3126 3127 3127 3127 3129 3129 3130 3132 3134 3136 3137 3139 3140 3141 3143 3144 3144 3145 3146 3146 3147 3148 3149 3149 3150 3150 3151 3152 3152 3151 3152 3152 3152
3128 3127 3129 3129 3129 3127 3127 3125 3125 3123 3123 3123 3123 3123 3123 3122 3124 3125 3126 3127 3128 3129 3129 3132 3134 3135 3136 3137 3139 3140 3141 3143 3144 3145 3146 3146 3147 3147 3148 3148 3149 3150 3151 3152 3152 3152 3152 3152 3153
3128 3128 3128 3129 3128 3128 3126 3126 3122 3122 3120 3121 3122 3123 3122 3122 3122 3124 3125 3126 3128 3129 3130 3130 3132 3133 3134 3136 3137 3139 3140 3141 3143 3144 3145 3146 3146 3147 3147 3147 3148 3149 3150 3151 3152 3152 3152 3152 3152
3127 3126 3129 3128 3127 3127 3125 3122 3120 3122 3123 3121 3121 3121 3120 3120 3121 3122 3123 3125 3125 3127 3128 3129 3130 3132 3133 3135 3137 3138 3139 3140 3142 3143 3143 3145 3145 3146 3146 3147 3147 3148 3149 3150 3151 3152 3152 3152 3152
3125 3126 3127 3125 3125 3124 3123 3120 3119 3120 3121 3120 3120 3119 3119 3120 3120 3121 3121 3122 3124 3125 3126 3127 3128 3129 3131 3133 3135 3136 3137 3139 3139 3141 3143 3144 3144 3145 3145 3146 3147 3147 3148 3149 3149 3150 3150 3151 3152
3125 3126 3126 3123 3123 3123 3120 3118 3118 3120 3120 3120 3119 3122 3117 3118 3119 3119 3119 3121 3123 3124 3125 3126 3127 3129 3130 3131 3133 3135 3136 3136 3138 3139 3141 3142 3143 3144 3144 3145 3145 3146 3147 3147 3148 3149 3149 3149 3150
3122 3123 3124 3124 3122 3122 3117 3116 3116 3117 3118 3116 3117 3120 3117 3117 3117 3118 3118 3119 3120 3122 3123 3125 3126 3127 3127 3129 3131 3132 3134 3135 3136 3137 3139 3141 3142 3142 3142 3143 3144 3144 3145 3146 3147 3147 3148 3148 3148
3121 3122 3121 3121 3120 3119 3116 3116 3114 3115 3115 3115 3115 3116 3115 3115 3115 3116 3117 3117 3118 3120 3121 3123 3124 3125 3125 3126 3127 3130 3132 3133 3130 3133 3135 3138 3139 3140 3140 3141 3142 3143 3143 3144 3144 3145 3145 3146 3147
3119 3120 3120 3118 3118 3116 3115 3114 3114 3113 3113 3112 3112 3113 3112 3113 3113 3114 3115 3115 3117 3118 3120 3122 3123 3123 3124 3125 3126 3128 3130 3132 3131 3132 3134 3121 3138 3137 3139 3139 3139 3140 3140 3141 3142 3142 3143 3144 3144
3116 3118 3116 3115 3115 3114 3113 3111 3111 3111 3112 3113 3111 3109 3110 3111 3112 3112 3113 3114 3116 3117 3118 3119 3121 3122 3123 3124 3125 3126 3128 3129 3131 3132 3133 3134 3135 3136 3136 3136 3136 3136 3137 3138 3139 3139 3139 3140 3141
3115 3114 3113 3113 3112 3111 3110 3109 3108 3108 3111 3108 3108 3107 3107 3108 3109 3110 3111 3113 3114 3115 3116 3117 3118 3119 3120 3122 3123 3124 3124 3125 3127 3129 3130 3130 3131 3131 3132 3132 3133 3133 3133 3134 3134 3135 3135 3137 3137
3113 3111 3110 3109 3108 3107 3107 3106 3105 3105 3105 3105 3105 3105 3105 3105 3106 3107 3109 3111 3112 3113 3114 3115 3115 3117 3118 3119 3120 3121 3122 3123 3124 3126 3127 3127 3128 3128 3128 3129 3129 3129 3129 3130 3130 3130 3131 3131 3133
3109 3109 3107 3107 3106 3105 3104 3103 3103 3101 3101 3102 3102 3103 3103 3104 3104 3105 3107 3109 3110 3110 3111 3113 3113 3115 3116 3117 3118 3120 3121 3122 3123 3124 3125 3125 3125 3125 3125 3125 3125 3126 3126 3126 3127 3126 3127 3127 3128
3107 3106 3104 3104 3103 3102 3102 3101 3099 3099 3099 3100 3100 3100 3101 3102 3103 3104 3105 3107 3107 3108 3109 3111 3112 3114 3115 3116 3117 3118 3119 3120 3121 3122 3123 3123 3123 3123 3123 3123 3123 3123 3123 3123 3123 3123 3123 3123 3123
3107 3105 3104 3100 3100 3100 3099 3099 3096 3097 3097 3097 3098 3099 3099 3100 3102 3102 3104 3105 3106 3107 3108 3110 3111 3113 3114 3115 3116 3117 3117 3118 3119 3120 3120 3121 3121 3120 3121 3121 3120 3120 3119 3119 3119 3119 3118 3118 3118
3108 3106 3105 3102 3099 3097 3099 3097 3093 3094 3094 3095 3095 3096 3097 3098 3099 3100 3101 3103 3105 3106 3107 3109 3111 3112 3113 3114 3115 3116 3116 3116 3116 3117 3117 3118 3117 3117 3116 3116 3115 3115 3114 3114 3114 3113 3113 3113 3113
3104 3103 3102 3101 3099 3096 3094 3094 3093 3092 3092 3092 3093 3093 3095 3096 3096 3097 3099 3101 3102 3105 3106 3108 3109 3111 3112 3112 3113 3114 3114 3114 3114 3114 3114 3114 3113 3113 3112 3111 3110 3109 3108 3107 3107 3107 3107 3106 3105
3100 3100 3100 3099 3094 3093 3092 3090 3090 3088 3088 3089 3090 3090 3091 3093 3094 3095 3095 3098 3101 3103 3104 3106 3107 3108 3109 3110 3110 3110 3111 3111 3111 3110 3110 3110 3108 3107 3105 3104 3103 3102 3101 3100 3100 3099 3099 3099 3099
3097 3095 3096 3096 3093 3091 3088 3086 3085 3085 3083 3085 3086 3087 3087 3088 3090 3093 3095 3096 3097 3099 3102 3103 3105 3106 3107 3108 3108 3108 3108 3108 3107 3107 3106 3105 3103 3102 3100 3098 3097 3095 3094 3093 3092 3091 3091 3091 3091
3093 3093 3093 3094 3091 3087 3084 3078 3076 3078 3078 3079 3080 3082 3084 3084 3086 3089 3092 3093 3094 3096 3098 3100 3102 3103 3104 3105 3105 3105 3105 3104 3103 3102 3101 3099 3098 3096 3094 3092 3089 3088 3087 3086 3085 3084 3083 3083 3083
3089 3087 3087 3087 3088 3088 3083 3076 3074 3073 3072 3072 3074 3077 3079 3081 3082 3085 3087 3089 3091 3093 3095 3096 3098 3100 3100 3101 3102 3102 3102 3101 3100 3098 3096 3094 3092 3090 3087 3084 3082 3081 3080 3079 3078 3077 3076 3074 3075
3089 3086 3085 3084 3083 3084 3082 3082 3071 3070 3070 3069 3069 3071 3073 3075 3078 3079 3083 3086 3087 3089 3091 3092 3094 3096 3097 3097 3098 3098 3097 3096 3095 3093 3091 3089 3086 3083 3081 3078 3076 3074 3073 3072 3071 3069 3068 3067 3066
3085 3085 3084 3082 3082 3079 3074 3077 3068 3067 3066 3064 3063 3065 3067 3069 3071 3074 3077 3079 3083 3085 3087 3089 3091 3092 3092 3093 3094 3094 3093 3092 3090 3088 3086 3083 3081 3077 3075 3071 3069 3066 3065 3063 3062 3062 3061 3060 3059
3083 3086 3085 3081 3079 3071 3069 3071 3065 3066 3064 3062 3062 3062 3063 3064 3066 3067 3069 3073 3078 3081 3084 3086 3088 3089 3089 3090 3090 3089 3088 3087 3085 3083 3081 3078 3074 3070 3067 3064 3062 3060 3058 3056 3055 3053 3053 3052 3050
3078 3083 3082 3075 3069 3064 3068 3064 3059 3058 3058 3058 3058 3059 3060 3060 3060 3061 3064 3069 3073 3077 3080 3082 3084 3085 3085 3085 3085 3085 3084 3082 3080 3079 3075 3072 3068 3065 3061 3058 3055 3053 3051 3049 3047 3046 3045 3043 3042
3076 3078 3079 3077 3072 3070 3062 3059 3057 3056 3054 3055 3055 3054 3056 3056 3055 3056 3059 3063 3069 3073 3076 3079 3080 3081 3082 3082 3081 3079 3078 3076 3075 3072 3069 3066 3062 3059 3056 3052 3049 3046 3043 3041 3040 3039 3037 3036 3035
3073 3075 3076 3076 3072 3062 3053 3055 3054 3053 3052 3051 3052 3051 3052 3052 3052 3053 3055 3061 3065 3069 3073 3076 3078 3078 3078 3078 3077 3075 3073 3071 3068 3065 3062 3059 3055 3052 3050 3047 3043 3040 3037 3035 3033 3031 3030 3028 3028
3067 3068 3070 3070 3068 3062 3054 3052 3050 3051 3050 3049 3050 3050 3049 3049 3050 3051 3054 3060 3064 3067 3070 3072 3074 3075 3074 3073 3072 3070 3068 3065 3062 3059 3056 3053 3049 3045 3043 3040 3037 3034 3031 3029 3026 3024 3022 3020 3019
3060 3061 3063 3063 3062 3061 3060 3054 3050 3050 3049 3048 3049 3048 3047 3048 3050 3050 3054 3058 3061 3064 3066 3068 3069 3069 3069 3068 3066 3064 3061 3058 3055 3052 3049 3046 3042 3038 3035 3032 3029 3027 3025 3023 3021 3018 3016 3014 3012
Wind_Speed
8 7 7 5 3 5 11 5 8 7 5 11 13 6 6 17 10 8 8 13 13 15 16 15 14 12 10 9 9 7 8 7 7 6 5 4 3 3 3 3 2 2 2 2 5 6 7 8 8
8 7 6 4 4 11 6 1 6 5 8 12 10 10 9 12 18 11 8 8 13 14 15 15 14 13 11 10 10 8 7 6 6 6 6 5 4 2 2 2 2 2 3 1 3 5 5 6 9
9 8 6 2 6 9 8 8 6 12 13 8 6 12 15 15 18 15 10 9 11 12 14 10 12 13 12 13 12 11 10 8 7 6 6 5 4 3 2 2 2 2 3 2 1 2 3 4 5
10 8 5 3 10 10 9 10 13 11 12 9 9 5 14 16 13 16 13 8 8 7 11 14 14 15 16 15 13 12 12 10 9 8 7 7 6 5 4 4 3 3 4 4 3 3 3 2 2
9 8 3 8 11 9 9 13 13 6 7 6 11 9 11 12 13 11 12 10 12 12 14 15 17 16 16 17 15 14 13 12 12 11 10 9 8 7 6 5 5 5 5 5 5 6 6 6 4
8 6 5 10 9 9 10 13 12 6 8 8 9 9 14 12 11 12 13 16 14 18 17 16 15 17 16 17 17 16 15 15 14 14 13 12 11 9 8 7 7 7 7 7 7 6 7 7 6
5 4 8 8 9 8 8 13 8 6 7 6 8 5 11 12 11 11 11 12 10 15 18 17 14 14 17 18 17 17 17 17 17 16 15 14 13 11 11 10 10 9 10 10 9 9 8 7 8
7 6 7 7 8 8 13 12 9 8 8 13 8 5 10 10 12 13 14 14 14 19 17 16 17 17 16 19 17 17 17 18 18 16 13 14 14 13 13 14 13 13 12 13 12 11 11 11 9
8 5 8 8 6 7 13 10 12 10 13 12 12 13 14 10 10 13 15 17 15 14 15 19 16 19 17 18 20 18 17 17 11 14 14 12 10 11 12 13 16 16 16 16 16 14 14 14 13
8 7 7 11 12 11 13 11 9 10 12 13 14 14 14 11 11 13 15 14 16 14 18 20 19 17 15 14 11 10 10 14 10 9 14 6 10 16 16 16 16 17 16 18 19 19 19 18 17
12 7 12 13 11 13 12 11 10 11 10 10 11 14 13 12 12 13 16 16 17 17 16 15 15 16 16 17 17 16 16 16 16 17 19 21 21 22 23 23 25 24 22 22 21 19 20 21 20
10 11 11 14 11 11 12 12 12 13 10 16 15 17 14 13 13 14 15 16 16 16 18 18 18 18 18 18 17 16 14 14 14 15 16 17 17 17 18 20 20 21 21 21 21 22 23 23 21
11 13 11 12 11 12 12 12 13 13 15 16 16 14 14 15 15 15 14 14 14 14 14 15 15 15 14 14 13 12 11 11 11 11 12 12 13 14 14 15 17 18 18 20 21 21 21 22 26
13 13 13 14 14 14 13 12 12 11 11 13 12 13 14 16 14 14 14 14 13 12 12 11 11 9 8 8 7 7 6 5 4 5 6 7 9 10 12 13 14 15 16 16 17 18 20 22 24
12 13 13 14 13 15 12 12 9 12 11 11 12 13 14 15 15 15 13 13 11 10 10 9 8 8 7 7 6 6 5 5 6 7 8 9 11 12 14 15 16 17 18 19 19 19 20 20 21
14 15 9 12 11 13 8 7 12 10 9 11 11 14 14 14 14 14 13 12 12 11 11 10 9 9 8 7 7 6 7 7 8 9 10 11 12 14 15 17 18 20 21 22 22 23 24 24 25
10 11 11 12 13 15 12 7 12 9 11 12 12 14 16 16 14 14 14 14 14 13 12 11 11 10 9 8 8 9 9 10 11 11 12 14 15 17 19 20 21 22 23 24 25 26 27 28 28
8 11 12 12 14 14 16 17 14 14 13 12 15 17 19 18 15 14 15 16 16 15 13 13 12 11 10 10 10 10 11 12 13 14 16 18 20 22 24 25 26 27 28 29 29 29 29 30 31
17 16 15 13 19 18 19 18 14 17 17 15 16 19 22 21 20 17 18 18 17 16 16 15 14 13 12 12 12 12 13 14 15 17 19 21 23 25 27 28 30 30 31 31 32 31 31 31 32
17 15 16 16 20 21 20 23 20 19 20 16 17 20 22 23 24 18 17 18 19 17 16 16 15 14 14 13 13 13 14 16 18 19 21 22 24 25 27 28 29 30 30 31 32 33 32 32 33
14 14 14 15 15 21 23 31 28 25 24 20 19 20 21 26 23 19 17 18 18 18 19 18 17 16 15 14 14 15 15 16 17 19 21 23 25 26 28 29 29 29 29 29 31 33 34 33 33
14 15 15 16 9 7 8 9 10 14 22 26 22 22 23 24 24 24 22 20 18 19 20 20 19 18 17 16 16 15 16 16 17 19 22 24 27 29 30 30 30 29 29 29 30 32 33 34 33
11 16 14 13 12 13 15 10 15 16 20 20 23 25 25 26 27 27 24 21 22 20 21 21 21 19 19 17 16 17 17 18 19 21 24 26 28 31 32 32 31 30 30 30 30 31 32 32 34
17 12 11 12 9 6 20 18 12 16 12 16 19 20 26 29 30 30 27 27 24 22 22 22 21 20 19 18 17 18 18 21 22 24 26 28 30 30 31 32 32 31 31 31 32 32 33 33 35
14 5 4 4 4 5 5 7 21 11 12 18 17 19 21 25 31 33 35 31 27 24 23 22 21 19 19 18 18 19 20 22 23 25 26 28 30 31 32 31 31 31 31 31 32 33 32 33 36
11 11 6 5 3 2 3 7 5 11 15 20 19 19 21 20 24 31 32 31 28 25 23 22 21 20 19 17 18 20 20 21 23 27 28 28 29 30 31 32 30 30 30 30 30 29 28 29 31
9 13 14 8 14 7 13 15 15 14 13 14 17 16 16 18 20 26 27 31 28 25 24 22 20 18 18 19 20 20 21 24 25 26 27 29 29 30 29 31 31 31 30 29 28 27 26 26 25
19 9 4 8 4 6 7 9 9 4 7 9 11 12 13 16 18 20 24 28 28 25 22 20 19 19 20 21 24 25 25 26 27 28 28 30 30 30 29 30 31 29 29 29 28 29 29 29 30
15 17 13 9 6 4 5 2 10 9 6 6 7 8 9 10 13 16 22 25 25 23 20 19 19 20 20 22 23 24 26 26 27 29 30 31 31 31 31 30 30 28 27 27 27 27 27 28 29
22 19 19 13 10 8 6 9 7 10 9 9 8 9 9 10 13 18 22 24 23 21 20 20 18 17 19 22 24 27 29 30 30 30 32 33 31 32 33 31 27 24 23 24 24 24 24 25 25
Wind_Direction
327 328 324 312 305 252 270 268 260 287 317 260 240 196 205 210 195 223 245 230 216 220 211 210 206 208 205 187 183 179 170 170 174 182 199 210 227 249 273 279 274 198 175 34 35 36 42 48 43
325 330 323 305 268 269 303 277 317 271 262 273 269 242 211 239 222 237 237 212 187 215 215 209 209 208 208 202 201 196 192 193 189 192 198 203 205 222 246 260 258 226 201 32 63 58 44 36 42
328 330 337 305 287 295 313 330 301 290 291 261 264 228 228 239 230 234 237 215 202 199 209 205 218 215 214 216 208 201 197 200 205 205 205 214 215 213 225 239 256 247 216 224 343 17 17 22 25
330 335 327 275 291 295 285 293 293 290 284 258 230 256 237 238 245 238 244 212 193 193 194 217 219 219 216 214 215 211 207 207 208 215 218 221 224 227 221 229 237 245 242 254 270 283 290 294 337
337 344 307 293 297 289 299 289 293 274 251 249 229 256 249 244 246 247 233 217 211 213 212 222 223 228 226 221 224 223 219 218 219 220 227 231 236 240 237 238 246 247 253 261 268 274 283 291 277
332 339 292 298 310 305 310 302 302 267 249 252 243 238 254 262 255 248 240 226 213 214 214 221 222 225 227 224 227 229 229 227 227 228 233 235 239 245 253 255 253 254 263 265 269 270 276 280 272
308 293 287 296 304 323 298 310 296 267 253 250 230 233 258 262 265 255 243 234 208 225 216 225 231 230 229 230 229 233 232 231 229 234 235 240 244 249 254 256 259 258 260 263 270 278 284 283 268
288 291 285 295 308 304 304 310 295 259 245 244 245 251 276 261 261 257 247 244 232 231 225 228 234 240 234 236 235 230 234 234 231 227 237 249 252 255 255 258 263 262 262 265 266 267 272 278 277
280 273 276 286 308 296 308 316 304 281 257 259 259 253 267 276 250 242 242 232 243 220 216 230 239 245 239 242 231 232 233 246 226 240 258 251 249 261 256 269 269 267 266 266 266 268 270 271 275
269 268 271 278 293 297 301 302 278 288 276 269 262 263 268 264 242 234 233 232 228 237 230 237 243 247 258 262 265 252 240 233 264 219 235 182 233 257 261 263 269 272 271 268 269 271 271 270 270
267 257 266 284 293 302 303 300 286 278 259 264 266 263 257 249 244 238 235 233 234 239 245 247 247 248 253 258 260 258 255 252 251 248 247 256 259 259 258 260 264 268 265 266 265 267 271 271 272
272 268 274 282 291 295 297 296 291 270 251 254 266 261 252 243 241 240 234 237 244 245 248 251 251 250 251 251 253 253 255 254 251 255 259 260 261 262 262 261 264 267 267 267 266 261 258 263 268
272 272 275 275 281 288 294 294 286 287 267 267 260 254 244 241 235 233 237 237 251 250 246 245 245 244 244 244 247 252 253 254 257 258 261 266 267 266 266 269 270 270 270 267 266 265 262 255 256
276 276 272 272 278 283 287 290 290 289 272 265 253 243 238 235 232 228 233 242 244 243 237 232 231 227 221 216 211 213 215 220 229 249 262 268 274 279 282 281 281 280 276 276 273 269 266 264 262
277 275 278 273 273 275 287 294 282 268 269 264 253 236 232 234 230 230 231 235 231 217 212 204 199 195 193 193 196 203 219 237 253 262 271 279 283 285 284 284 283 281 280 279 278 276 272 269 265
282 279 265 262 264 268 260 270 276 271 272 257 250 240 227 224 225 231 236 232 220 213 202 196 195 196 199 208 220 235 246 255 263 272 279 283 287 288 287 285 283 283 282 280 277 276 274 272 270
283 277 269 280 266 266 259 243 265 266 261 256 241 235 226 227 241 241 228 222 219 214 206 204 203 204 210 218 229 242 256 267 275 282 288 293 295 295 295 294 292 288 284 281 280 278 276 273 270
295 272 275 270 286 266 262 259 264 264 256 255 245 230 230 234 236 240 232 226 216 215 214 214 214 218 224 232 244 256 263 272 280 285 290 295 297 297 295 292 291 290 287 284 279 277 276 276 275
273 273 275 269 273 272 276 265 255 257 255 248 248 234 233 235 241 235 228 225 228 219 217 220 220 225 234 245 255 263 272 280 287 295 298 299 300 301 300 296 291 287 285 283 281 278 276 274 274
273 270 274 277 272 276 273 271 260 250 258 250 246 240 237 233 237 233 238 233 226 227 231 224 227 231 239 248 256 266 278 284 287 291 295 300 301 301 300 297 293 288 284 281 280 279 277 275 273
274 265 269 274 283 284 287 280 271 249 249 245 240 238 240 239 234 234 239 238 238 234 229 229 229 236 242 249 259 271 279 285 293 300 305 308 309 309 307 302 298 293 287 283 280 279 277 276 275
274 253 266 268 274 270 270 286 281 236 241 241 240 239 237 240 234 235 234 237 236 237 236 231 233 239 244 253 265 275 283 293 300 305 308 312 314 312 310 305 299 294 289 284 279 277 276 276 277
263 272 271 266 261 276 264 268 276 234 244 247 241 239 236 239 238 241 243 242 237 234 235 233 236 239 247 256 266 272 283 293 299 306 310 312 312 310 308 304 299 294 289 285 281 278 277 277 277
265 283 289 279 266 254 255 230 269 252 238 224 225 229 236 236 238 241 239 240 238 235 233 235 236 240 246 257 267 276 287 293 302 309 311 310 308 307 305 302 299 297 293 289 284 281 279 279 278
255 243 279 244 211 252 234 223 236 287 263 241 243 234 231 237 239 240 242 240 235 233 233 233 238 242 252 265 275 285 293 300 308 311 310 309 308 307 305 301 299 297 293 289 285 283 281 279 277
241 211 233 276 248 332 279 234 245 263 250 255 255 253 251 248 238 239 243 237 231 229 227 229 235 245 259 273 283 292 298 305 311 309 310 310 308 306 303 301 299 295 293 291 288 287 286 281 277
215 228 234 268 270 279 251 253 274 261 263 257 261 266 258 249 236 242 235 227 224 223 224 230 238 254 267 275 282 295 308 311 310 310 310 311 310 307 303 300 299 298 296 294 291 291 288 285 285
226 208 223 216 257 253 252 255 238 249 251 260 275 282 270 253 244 238 225 217 218 219 225 233 249 264 276 286 293 299 301 307 311 312 311 311 309 306 303 300 297 295 293 292 292 292 290 286 285
235 230 222 228 234 269 283 262 209 240 256 285 296 308 301 257 238 221 211 210 214 220 227 242 258 272 282 290 296 304 306 309 313 314 312 310 308 306 303 299 295 290 288 291 294 294 292 288 285
233 232 226 224 228 231 264 263 271 256 256 281 310 346 297 248 221 211 207 209 215 223 233 247 261 274 287 295 303 309 310 310 311 311 310 306 307 305 302 297 292 287 287 290 291 294 294 294 293